Location: Unspecified
(54.1780°N, 0.0000°E)
Time: 23:33:59
(UTC+00:00)

A-11 Canister half - Visible Passes

Search period start: 20 June 2019 00:00
Search period end: 30 June 2019 00:00
Orbit: 1525 x 1684 km, 47.3° (Epoch: 19 June)

Date Brightness Start Highest point End Pass type
(mag) Time Alt. Az. Time Alt. Az. Time Alt. Az.
23 Jun 10.7 02:31:32 10° SSE 02:36:26 15° SE 02:41:17 10° E visible
24 Jun 10.7 02:10:23 10° SSE 02:14:56 15° SE 02:19:27 10° E visible
25 Jun 10.7 01:49:16 10° SSE 01:53:26 14° SE 01:57:34 10° E visible
26 Jun 10.7 01:28:13 10° SSE 01:31:56 13° SE 01:35:37 10° ESE visible
27 Jun 10.7 01:07:15 10° SE 01:10:26 12° SE 01:13:35 10° ESE visible
28 Jun 10.7 00:46:26 10° SE 00:48:56 11° SE 00:51:25 10° ESE visible
29 Jun 10.7 00:25:58 10° SE 00:27:27 10° SE 00:28:55 10° ESE visible
29 Jun 9.9 02:21:54 10° SSW 02:29:59 32° SE 02:37:54 10° E visible
